TimeMST,TemperatureF,Dew PointF,Humidity,Sea Level PressureIn,VisibilityMPH,Wind Direction,Wind SpeedMPH,Gust SpeedMPH,PrecipitationIn,Events,Conditions,WindDirDegrees,DateUTC
12:15 AM,23.0,17.6,80,30.36,10.0,Calm,Calm,-,N/A,,Overcast,0,2013-01-25 07:15:00
12:35 AM,24.8,15.8,69,30.36,10.0,Calm,Calm,-,N/A,,Overcast,0,2013-01-25 07:35:00
12:55 AM,21.2,15.8,80,30.35,10.0,SW,3.5,-,N/A,,Overcast,220,2013-01-25 07:55:00
1:15 AM,23.0,17.6,80,30.36,10.0,Calm,Calm,-,N/A,,Overcast,0,2013-01-25 08:15:00
1:35 AM,24.8,17.6,74,30.36,10.0,Calm,Calm,-,N/A,,Overcast,0,2013-01-25 08:35:00
1:55 AM,23.0,15.8,74,30.36,10.0,Calm,Calm,-,N/A,,Overcast,0,2013-01-25 08:55:00
2:35 AM,23.0,15.8,74,30.36,10.0,Calm,Calm,-,N/A,,Overcast,0,2013-01-25 09:35:00
2:55 AM,23.0,17.6,80,30.36,10.0,Calm,Calm,-,N/A,,Overcast,0,2013-01-25 09:55:00
3:15 AM,24.8,17.6,74,30.36,10.0,Calm,Calm,-,N/A,,Overcast,0,2013-01-25 10:15:00
3:35 AM,23.0,17.6,80,30.35,10.0,Calm,Calm,-,N/A,,Overcast,0,2013-01-25 10:35:00
3:55 AM,24.8,19.4,80,30.34,10.0,Calm,Calm,-,N/A,,Overcast,0,2013-01-25 10:55:00
4:15 AM,23.0,17.6,80,30.33,10.0,Calm,Calm,-,N/A,,Overcast,0,2013-01-25 11:15:00
4:35 AM,23.0,15.8,74,30.33,10.0,Calm,Calm,-,N/A,,Overcast,0,2013-01-25 11:35:00
4:55 AM,24.8,17.6,74,30.31,10.0,Calm,Calm,-,N/A,,Overcast,0,2013-01-25 11:55:00
5:15 AM,24.8,17.6,74,30.32,10.0,SW,3.5,-,N/A,,Overcast,220,2013-01-25 12:15:00
5:35 AM,23.0,17.6,80,30.32,10.0,WSW,3.5,-,N/A,,Overcast,250,2013-01-25 12:35:00
5:55 AM,24.8,17.6,74,30.33,10.0,Calm,Calm,-,N/A,,Overcast,0,2013-01-25 12:55:00
6:35 AM,24.8,17.6,74,30.35,10.0,Calm,Calm,-,N/A,,Overcast,0,2013-01-25 13:35:00
6:55 AM,24.8,17.6,74,30.36,10.0,SW,3.5,-,N/A,,Overcast,230,2013-01-25 13:55:00
7:15 AM,24.8,19.4,80,30.36,10.0,Calm,Calm,-,N/A,,Overcast,0,2013-01-25 14:15:00
7:35 AM,24.8,19.4,80,30.36,10.0,Calm,Calm,-,N/A,,Overcast,0,2013-01-25 14:35:00
7:55 AM,24.8,19.4,80,30.35,10.0,Calm,Calm,-,N/A,,Overcast,0,2013-01-25 14:55:00
8:15 AM,24.8,19.4,80,30.35,9.0,Calm,Calm,-,N/A,,Overcast,0,2013-01-25 15:15:00
8:35 AM,26.6,19.4,74,30.35,10.0,Calm,Calm,-,N/A,,Overcast,0,2013-01-25 15:35:00
9:15 AM,26.6,19.4,74,30.35,8.0,Calm,Calm,-,N/A,,Overcast,0,2013-01-25 16:15:00
9:35 AM,26.6,21.2,80,30.36,9.0,Calm,Calm,-,N/A,,Overcast,0,2013-01-25 16:35:00
9:55 AM,26.6,21.2,80,30.36,9.0,Calm,Calm,-,N/A,,Overcast,0,2013-01-25 16:55:00
10:15 AM,28.4,21.2,74,30.37,9.0,Calm,Calm,-,N/A,,Overcast,0,2013-01-25 17:15:00
10:35 AM,28.4,23.0,80,30.37,10.0,Calm,Calm,-,N/A,,Overcast,0,2013-01-25 17:35:00
10:55 AM,28.4,23.0,80,30.36,10.0,Calm,Calm,-,N/A,,Overcast,0,2013-01-25 17:55:00
11:15 AM,30.2,23.0,75,30.35,10.0,Calm,Calm,-,N/A,,Overcast,0,2013-01-25 18:15:00
11:35 AM,32.0,23.0,69,30.34,10.0,Calm,Calm,-,N/A,,Overcast,0,2013-01-25 18:35:00
11:55 AM,33.8,24.8,70,30.33,10.0,Calm,Calm,-,N/A,,Overcast,0,2013-01-25 18:55:00
12:15 PM,33.8,24.8,70,30.32,10.0,Calm,Calm,-,N/A,,Overcast,0,2013-01-25 19:15:00
12:35 PM,35.6,26.6,70,30.31,10.0,South,3.5,-,N/A,,Overcast,170,2013-01-25 19:35:00
12:55 PM,35.6,26.6,70,30.30,10.0,Calm,Calm,-,N/A,,Overcast,0,2013-01-25 19:55:00
1:15 PM,35.6,26.6,70,30.29,10.0,Calm,Calm,-,N/A,,Overcast,0,2013-01-25 20:15:00
1:35 PM,35.6,26.6,70,30.29,10.0,Calm,Calm,-,N/A,,Overcast,0,2013-01-25 20:35:00
1:55 PM,35.6,26.6,70,30.28,10.0,SE,3.5,-,N/A,,Overcast,140,2013-01-25 20:55:00
2:15 PM,35.6,28.4,75,30.28,10.0,Calm,Calm,-,N/A,,Overcast,0,2013-01-25 21:15:00
2:35 PM,35.6,26.6,70,30.27,10.0,Calm,Calm,-,N/A,,Overcast,0,2013-01-25 21:35:00
2:55 PM,35.6,28.4,75,30.27,10.0,Calm,Calm,-,N/A,,Overcast,0,2013-01-25 21:55:00
3:15 PM,37.4,28.4,70,30.27,10.0,Calm,Calm,-,N/A,,Overcast,0,2013-01-25 22:15:00
3:35 PM,37.4,28.4,70,30.27,10.0,Calm,Calm,-,N/A,,Overcast,0,2013-01-25 22:35:00
3:55 PM,37.4,28.4,70,30.26,10.0,Calm,Calm,-,N/A,,Overcast,0,2013-01-25 22:55:00
4:55 PM,37.4,28.4,70,30.26,10.0,Calm,Calm,-,N/A,,Overcast,0,2013-01-25 23:55:00
5:15 PM,35.6,28.4,75,30.25,10.0,Calm,Calm,-,N/A,,Overcast,0,2013-01-26 00:15:00
5:35 PM,35.6,28.4,75,30.25,10.0,Calm,Calm,-,N/A,,Overcast,0,2013-01-26 00:35:00
5:55 PM,35.6,28.4,75,30.26,10.0,Calm,Calm,-,N/A,,Overcast,0,2013-01-26 00:55:00
6:15 PM,35.6,28.4,75,30.25,10.0,Calm,Calm,-,N/A,,Overcast,0,2013-01-26 01:15:00
6:35 PM,33.8,28.4,81,30.26,10.0,Calm,Calm,-,N/A,,Overcast,0,2013-01-26 01:35:00
6:55 PM,33.8,28.4,81,30.26,10.0,Calm,Calm,-,N/A,,Overcast,0,2013-01-26 01:55:00
7:15 PM,33.8,28.4,81,30.26,10.0,Calm,Calm,-,N/A,,Overcast,0,2013-01-26 02:15:00
7:35 PM,33.8,28.4,81,30.26,10.0,Calm,Calm,-,N/A,,Overcast,0,2013-01-26 02:35:00
8:35 PM,30.2,26.6,86,30.26,10.0,Calm,Calm,-,N/A,,Mostly Cloudy,0,2013-01-26 03:35:00
8:55 PM,30.2,28.4,93,30.27,8.0,Calm,Calm,-,N/A,,Scattered Clouds,0,2013-01-26 03:55:00
9:15 PM,30.2,26.6,86,30.27,7.0,Calm,Calm,-,N/A,,Clear,0,2013-01-26 04:15:00
9:35 PM,28.4,24.8,86,30.27,5.0,Calm,Calm,-,N/A,,Clear,0,2013-01-26 04:35:00
9:55 PM,28.4,24.8,86,30.27,4.0,Calm,Calm,-,N/A,,Clear,0,2013-01-26 04:55:00
10:35 PM,26.6,19.4,74,30.26,4.0,Calm,Calm,-,N/A,,Overcast,0,2013-01-26 05:35:00
10:55 PM,28.4,24.8,86,30.26,5.0,Calm,Calm,-,N/A,,Overcast,0,2013-01-26 05:55:00
11:15 PM,26.6,24.8,93,30.26,9.0,Calm,Calm,-,N/A,,Overcast,0,2013-01-26 06:15:00
11:35 PM,28.4,24.8,86,30.26,10.0,Calm,Calm,-,N/A,,Overcast,0,2013-01-26 06:35:00
11:55 PM,28.4,24.8,86,30.26,7.0,Calm,Calm,-,N/A,,Overcast,0,2013-01-26 06:55:00